DW6064 Weather Reports


time (UTC)temp
F
wind
direction
speed
knots
gust
knots
rain 1hr
in
rain 24hr
in
rain mn
in
humidity
%
barometer
mb
20260901231543 90 232 0.9 7.0 0.00 0.01 0.01 61 1013.7
20260901231042 90 252 2.6 7.0 0.00 0.01 0.01 60 1013.7
20260901230605 90 257 3.5 6.1 0.00 0.01 0.01 60 1013.7
20260901230043 90 242 2.6 7.0 0.00 0.01 0.01 59 1013.8
20260901225541 91 242 3.5 7.0 0.00 0.01 0.01 59 1013.8
20260901225040 91 242 0.9 5.2 0.00 0.01 0.01 59 1013.8
20260901224537 91 254 2.6 6.1 0.00 0.01 0.01 58 1013.8
20260901224037 92 240 0.9 5.2 0.00 0.01 0.01 58 1013.8
20260901223534 92 245 0.9 5.2 0.00 0.01 0.01 57 1013.9
20260901223031 92 234 0.9 5.2 0.00 0.01 0.01 57 1013.9
20260901222529 92 238 0.9 6.1 0.00 0.01 0.01 57 1013.8
20260901222029 93 242 1.7 8.7 0.00 0.01 0.01 57 1013.7
20260901221531 93 249 3.5 8.7 0.00 0.01 0.01 57 1013.7
20260901221055 93 229 1.7 7.0 0.00 0.01 0.01 57 1013.8
20260901220531 93 242 1.7 7.0 0.00 0.01 0.01 57 1013.8
20260901220053 93 255 1.7 7.8 0.00 0.01 0.01 57 1013.8
20260901215529 93 250 2.6 7.8 0.00 0.01 0.01 57 1013.8
20260901215028 93 242 3.5 7.8 0.00 0.01 0.01 57 1013.9
20260901214524 93 217 3.5 8.7 0.00 0.01 0.01 57 1013.8
20260901214044 93 254 3.5 8.7 0.00 0.01 0.01 56 1013.8
20260901213540 94 213 3.5 8.7 0.00 0.01 0.01 55 1013.8
20260901213040 94 246 3.5 10.4 0.00 0.01 0.01 54 1013.8
20260901212602 95 274 4.3 10.4 0.00 0.01 0.01 54 1013.8
20260901212105 95 250 2.6 8.7 0.00 0.01 0.01 53 1013.9
20260901211540 96 244 5.2 12.2 0.00 0.01 0.01 52 1014.0
20260901211039 96 317 5.2 12.2 0.00 0.01 0.01 52 1013.9
20260901210535 96 265 5.2 8.7 0.00 0.01 0.01 51 1013.9
20260901210034 96 261 2.6 8.7 0.00 0.01 0.01 52 1013.9
20260901205558 97 246 4.3 8.7 0.00 0.01 0.01 51 1013.8
20260901205036 98 224 4.3 9.6 0.00 0.01 0.01 49 1013.8
20260901204534 98 281 5.2 13.0 0.00 0.01 0.01 49 1013.9
20260901204033 98 284 3.5 13.0 0.00 0.01 0.01 49 1014.0
20260901203534 98 254 6.1 13.0 0.00 0.01 0.01 48 1013.9
20260901203034 98 258 3.5 9.6 0.00 0.01 0.01 50 1013.9
20260901202531 98 294 5.2 9.6 0.00 0.01 0.01 49 1014.0
20260901202031 98 294 4.3 12.2 0.00 0.01 0.01 49 1014.0
20260901201529 98 240 5.2 13.0 0.00 0.01 0.01 48 1014.0
20260901201028 98 277 7.8 13.0 0.00 0.01 0.01 48 1014.1
20260901200547 98 269 6.1 11.3 0.00 0.01 0.01 48 1014.1
20260901200026 98 245 6.1 11.3 0.00 0.01 0.01 49 1014.0
20260901195542 97 249 4.3 14.8 0.00 0.01 0.01 51 1014.0
20260901195043 97 261 6.1 14.8 0.00 0.01 0.01 51 1014.1
20260901194540 97 213 7.8 12.2 0.00 0.01 0.01 50 1014.1
20260901194040 97 241 6.1 15.6 0.00 0.01 0.01 49 1014.2
20260901193536 97 269 9.6 15.6 0.00 0.01 0.01 49 1014.2
20260901193035 97 277 7.8 13.0 0.00 0.01 0.01 51 1014.3
20260901192532 96 227 7.0 13.0 0.00 0.01 0.01 51 1014.3
20260901192035 96 294 5.2 13.9 0.00 0.01 0.01 51 1014.3
20260901191532 96 216 6.1 13.9 0.00 0.01 0.01 53 1014.5
20260901191030 96 261 8.7 13.9 0.00 0.01 0.01 53 1014.5
20260901190528 96 340 5.2 13.0 0.00 0.01 0.01 54 1014.4
20260901190052 96 245 5.2 13.0 0.00 0.01 0.01 55 1014.5
20260901185528 95 225 3.5 11.3 0.00 0.01 0.01 56 1014.7
20260901185053 95 259 4.3 11.3 0.00 0.01 0.01 55 1014.9
20260901184528 95 249 5.2 12.2 0.00 0.01 0.01 57 1014.9
20260901184027 95 234 6.1 12.2 0.00 0.01 0.01 56 1015.0
20260901183524 95 279 4.3 12.2 0.00 0.01 0.01 58 1015.0
20260901183043 94 240 7.0 12.2 0.00 0.01 0.01 58 1015.0
20260901182541 94 212 4.3 10.4 0.00 0.01 0.01 57 1014.9
20260901182040 95 255 4.3 11.3 0.00 0.01 0.01 57 1015.1
20260901181538 94 266 2.6 12.2 0.00 0.01 0.01 58 1015.2
20260901181103 94 247 6.1 12.2 0.00 0.01 0.01 60 1015.3
20260901180540 93 245 7.0 11.3 0.00 0.01 0.01 58 1015.4
20260901180038 93 244 4.3 11.3 0.00 0.01 0.01 58 1015.4
20260901175539 94 212 2.6 11.3 0.00 0.01 0.01 57 1015.5
20260901175103 94 227 4.3 16.5 0.00 0.01 0.01 58 1015.5
20260901174540 94 240 7.0 16.5 0.00 0.01 0.01 59 1015.6
20260901174040 93 279 2.6 14.8 0.00 0.01 0.01 60 1015.6
20260901173601 93 241 4.3 11.3 0.00 0.01 0.01 60 1015.6
20260901173039 92 183 2.6 13.0 0.00 0.01 0.01 61 1015.4
20260901172538 93 204 7.8 13.0 0.00 0.01 0.01 59 1015.4
20260901172035 92 190 2.6 8.7 0.00 0.01 0.01 63 1015.5
20260901171532 92 257 3.5 8.7 0.00 0.01 0.01 61 1015.5
20260901171057 92 237 4.3 8.7 0.00 0.01 0.01 62 1015.5
20260901170533 91 208 1.7 12.2 0.00 0.01 0.01 63 1015.5
20260901170034 91 186 5.2 11.3 0.00 0.01 0.01 61 1015.5
20260901165554 90 198 3.5 11.3 0.00 0.01 0.01 63 1015.4
20260901165033 90 246 3.5 9.6 0.00 0.01 0.01 63 1015.5
20260901164529 90 180 5.2 10.4 0.00 0.01 0.01 63 1015.7
20260901164030 90 230 3.5 10.4 0.00 0.01 0.01 64 1015.9
20260901163552 90 188 5.2 10.4 0.00 0.01 0.01 64 1015.9
20260901163031 90 218 4.3 13.0 0.00 0.01 0.01 64 1015.9
20260901162532 90 209 6.1 13.0 0.00 0.01 0.01 64 1016.0
20260901162054 89 241 5.2 10.4 0.00 0.01 0.01 66 1016.1
20260901161531 89 192 7.8 10.4 0.00 0.01 0.01 66 1016.1
20260901161030 89 207 5.2 8.7 0.00 0.01 0.01 67 1016.1
20260901160528 88 198 6.1 9.6 0.00 0.01 0.01 70 1016.1
20260901160032 87 211 4.3 9.6 0.00 0.01 0.01 73 1016.1
20260901155527 86 187 5.2 8.7 0.00 0.01 0.01 74 1016.2
20260901155048 85 175 6.1 10.4 0.00 0.01 0.01 75 1016.2
20260901154524 84 180 5.2 8.7 0.00 0.01 0.01 76 1016.2
20260901154044 83 190 7.0 8.7 0.00 0.01 0.01 77 1016.3
20260901153541 82 182 4.3 7.8 0.00 0.01 0.01 78 1016.3
20260901153040 82 207 5.2 8.7 0.00 0.01 0.01 79 1016.4
20260901152603 81 174 6.1 8.7 0.01 0.01 0.01 80 1016.5
20260901152041 81 192 7.0 7.8 0.01 0.01 0.01 80 1016.5
20260901151539 81 178 5.2 7.8 0.01 0.01 0.01 81 1016.5
20260901151038 80 190 3.5 7.0 0.01 0.01 0.01 82 1016.6
20260901150536 80 189 4.3 6.1 0.01 0.01 0.01 83 1016.5
20260901150035 80 161 3.5 7.0 0.01 0.01 0.01 85 1016.6
20260901145537 80 170 5.2 7.8 0.01 0.01 0.01 84 1016.6
20260901145101 79 163 4.3 7.8 0.01 0.01 0.01 83 1016.5
20260901144537 80 144 5.2 7.8 0.01 0.01 0.01 82 1016.5
20260901144036 80 153 6.1 7.8 0.01 0.01 0.01 81 1016.6
20260901143534 81 168 6.1 9.6 0.01 0.01 0.01 81 1016.8
20260901143033 81 157 7.0 9.6 0.01 0.01 0.01 80 1016.8
20260901142530 81 164 5.2 7.8 0.00 0.00 0.00 77 1017.0
20260901142031 81 159 5.2 7.0 0.00 0.00 0.00 78 1016.9
20260901141526 81 151 5.2 8.7 0.00 0.00 0.00 78 1016.9
20260901141026 81 165 5.2 8.7 0.00 0.00 0.00 78 1016.9
20260901140537 81 192 4.3 8.7 0.00 0.00 0.00 78 1016.8
20260901140103 81 166 7.0 9.6 0.00 0.00 0.00 78 1016.8
20260901135538 80 184 6.1 7.8 0.00 0.00 0.00 78 1016.8
20260901135037 80 181 6.1 8.7 0.00 0.00 0.00 79 1016.8
20260901134535 80 175 6.1 9.6 0.00 0.00 0.00 79 1016.7
20260901134034 80 184 6.1 8.7 0.00 0.00 0.00 79 1016.8
20260901133531 80 154 5.2 8.7 0.00 0.00 0.00 79 1016.8
20260901133054 80 140 4.3 7.0 0.00 0.00 0.00 79 1016.8
20260901132554 80 160 4.3 7.0 0.00 0.00 0.00 80 1016.9
20260901132036 80 148 4.3 7.8 0.00 0.00 0.00 80 1016.9
20260901131534 80 134 4.3 9.6 0.00 0.00 0.00 80 1017.0
20260901131033 79 186 4.3 9.6 0.00 0.00 0.00 80 1017.0
20260901130531 79 191 6.1 9.6 0.00 0.00 0.00 81 1017.1
20260901130030 78 169 7.0 9.6 0.00 0.00 0.00 82 1017.1
20260901125529 78 163 7.8 12.2 0.00 0.00 0.00 83 1017.2
20260901125029 77 149 7.0 10.4 0.00 0.00 0.00 83 1017.2
20260901124527 77 172 7.0 9.6 0.00 0.00 0.00 84 1017.3
20260901124046 77 173 7.8 9.6 0.00 0.00 0.00 85 1017.2
20260901123543 76 173 7.0 9.6 0.00 0.00 0.00 85 1017.2
20260901123042 76 158 5.2 8.7 0.00 0.00 0.00 86 1017.2
20260901122539 76 138 4.3 7.8 0.00 0.00 0.00 87 1017.3
20260901122038 75 150 5.2 7.8 0.00 0.00 0.00 87 1017.2
20260901121536 75 164 5.2 8.7 0.00 0.00 0.00 88 1017.1
20260901121035 75 164 4.3 7.0 0.00 0.00 0.00 88 1017.2
20260901120536 75 158 4.3 7.8 0.00 0.00 0.00 88 1017.1
20260901120034 75 141 4.3 7.0 0.00 0.00 0.00 88 1017.1
20260901115532 75 147 3.5 6.1 0.00 0.00 0.00 88 1017.2
20260901115031 74 158 3.5 6.1 0.00 0.00 0.00 88 1017.2
20260901114528 74 141 2.6 4.3 0.00 0.00 0.00 88 1017.1
20260901114027 74 153 3.5 7.0 0.00 0.00 0.00 88 1017.2
20260901113524 74 149 4.3 7.0 0.00 0.00 0.00 88 1017.2
20260901113043 74 156 2.6 6.1 0.00 0.00 0.00 89 1017.2
20260901112540 74 165 3.5 5.2 0.00 0.00 0.00 89 1017.2
20260901112041 74 149 3.5 5.2 0.00 0.00 0.00 89 1017.2
20260901111538 74 165 2.6 6.1 0.00 0.00 0.00 89 1017.2
20260901111037 74 154 3.5 6.1 0.00 0.00 0.00 89 1017.0
20260901110559 74 145 1.7 6.1 0.00 0.00 0.00 89 1017.0
20260901110037 74 150 1.7 6.1 0.00 0.00 0.00 89 1017.0
20260901105533 74 156 3.5 6.1 0.00 0.00 0.00 89 1016.8
20260901105056 74 152 2.6 4.3 0.00 0.00 0.00 89 1016.9
20260901104536 74 137 1.7 3.5 0.00 0.00 0.00 89 1017.0
20260901104036 74 137 1.7 3.5 0.00 0.00 0.00 89 1016.9
20260901103533 74 160 2.6 6.1 0.00 0.00 0.00 89 1016.9
20260901103057 74 165 2.6 6.1 0.00 0.00 0.00 89 1016.9
20260901102533 74 150 1.7 4.3 0.00 0.00 0.00 89 1016.9
20260901102034 74 124 2.6 4.3 0.00 0.00 0.00 89 1016.8
20260901101530 74 101 2.6 6.1 0.00 0.00 0.00 89 1016.8
20260901101049 74 134 2.6 6.1 0.00 0.00 0.00 89 1016.7
20260901100545 74 142 3.5 6.1 0.00 0.00 0.00 89 1016.7
20260901100025 75 134 2.6 6.1 0.00 0.00 0.00 89 1016.7
20260901095542 74 153 3.5 6.1 0.00 0.00 0.00 89 1016.7
20260901095042 74 152 4.3 6.1 0.00 0.00 0.00 89 1016.7
20260901094540 75 136 4.3 7.0 0.00 0.00 0.00 88 1016.8
20260901094103 75 147 4.3 7.0 0.00 0.00 0.00 88 1016.8
20260901093538 75 141 4.3 6.1 0.00 0.00 0.00 89 1016.8
20260901093102 75 141 3.5 6.1 0.00 0.00 0.00 89 1016.8
20260901092538 74 140 2.6 5.2 0.00 0.00 0.00 89 1016.9
20260901092036 74 149 2.6 4.3 0.00 0.00 0.00 89 1016.9
20260901091533 74 140 2.6 4.3 0.00 0.00 0.00 88 1016.9
20260901091056 74 169 1.7 6.1 0.00 0.00 0.00 88 1017.0
20260901090536 74 139 3.5 6.1 0.00 0.00 0.00 89 1016.9
20260901090035 74 158 2.6 4.3 0.00 0.00 0.00 89 1016.9
20260901085558 74 167 3.5 4.3 0.00 0.00 0.00 89 1016.8
20260901085036 74 187 1.7 3.5 0.00 0.00 0.00 89 1016.8
20260901084559 74 149 0.9 5.2 0.00 0.00 0.00 89 1016.8
20260901084036 74 149 1.7 5.2 0.00 0.00 0.00 89 1016.9
20260901083534 74 149 2.6 5.2 0.00 0.00 0.00 89 1016.8
20260901083033 74 170 3.5 5.2 0.00 0.00 0.00 89 1016.8
20260901082530 74 169 3.5 4.3 0.00 0.00 0.00 89 1016.8
20260901082030 74 159 3.5 6.1 0.00 0.00 0.00 89 1016.7
20260901081525 74 159 3.5 6.1 0.00 0.00 0.00 89 1016.9
20260901081044 74 159 1.7 4.3 0.00 0.00 0.00 89 1017.0
20260901080541 74 148 2.6 4.3 0.00 0.00 0.00 89 1017.0
20260901080041 74 169 3.5 4.3 0.00 0.00 0.00 89 1017.0
20260901075537 74 151 3.5 5.2 0.00 0.00 0.00 89 1017.0
20260901075037 74 169 1.7 4.3 0.00 0.00 0.00 89 1017.0
20260901074539 74 169 1.7 4.3 0.00 0.00 0.00 89 1017.1
20260901074038 74 169 1.7 3.5 0.00 0.00 0.00 89 1017.1
20260901073533 74 169 1.7 3.5 0.00 0.00 0.00 89 1017.1
20260901073032 74 169 0.0 2.6 0.00 0.00 0.00 89 1017.0
20260901072529 74 169 0.9 2.6 0.00 0.00 0.00 89 1017.0
20260901072033 74 169 0.9 2.6 0.00 0.00 0.00 89 1017.0
20260901071556 74 169 1.7 2.6 0.00 0.00 0.00 89 1017.0
20260901071033 73 169 0.9 3.5 0.00 0.00 0.00 89 1016.9
20260901070528 73 169 1.7 1.7 0.00 0.00 0.00 89 1016.9
20260901070027 73 169 0.9 2.6 0.00 0.00 0.00 89 1016.9
20260901065544 73 169 1.7 2.6 0.00 0.00 0.00 89 1016.9
20260901065040 73 169 1.7 2.6 0.00 0.00 0.00 89 1016.9
20260901064536 73 169 2.6 3.5 0.00 0.00 0.00 89 1017.0
20260901064035 73 174 2.6 3.5 0.00 0.00 0.00 89 1017.0
20260901063533 73 164 2.6 4.3 0.00 0.00 0.00 89 1017.0
20260901063032 73 159 2.6 4.3 0.00 0.00 0.00 88 1017.0
20260901062529 73 192 2.6 3.5 0.00 0.00 0.00 88 1017.1
20260901062033 73 192 0.0 0.0 0.00 0.00 0.00 88 1017.2
20260901061531 73 192 0.0 0.0 0.00 0.00 0.00 88 1017.3
20260901061033 73 192 0.0 0.0 0.00 0.00 0.00 87 1017.3
20260901060550 73 192 0.0 0.0 0.00 0.00 0.00 87 1017.5
20260901060028 73 192 0.0 0.0 0.00 0.00 0.00 87 1017.4
20260901055543 73 192 0.0 0.0 0.00 0.00 0.00 87 1017.5
20260901055041 74 192 0.0 0.0 0.00 0.00 0.00 87 1017.6
20260901054538 73 192 0.0 0.0 0.00 0.00 0.00 87 1017.7
20260901054037 74 192 0.0 0.0 0.00 0.00 0.00 87 1017.8
20260901053534 74 192 0.0 0.0 0.00 0.00 0.00 87 1017.8
20260901053058 74 192 0.0 0.0 0.00 0.00 0.00 87 1017.8
20260901052534 73 192 0.0 0.0 0.00 0.00 0.00 87 1017.9
20260901052032 74 192 0.0 0.0 0.00 0.00 0.00 87 1018.0
20260901051549 74 192 0.0 0.0 0.00 0.00 0.00 87 1017.9
20260901051028 74 192 0.0 0.0 0.00 0.00 0.00 86 1017.8
20260901050543 74 192 0.0 0.0 0.00 0.00 0.00 86 1017.7
20260901050042 74 192 0.0 0.0 0.00 0.00 0.00 86 1017.7
20260901045539 74 192 0.0 0.0 0.00 0.00 0.00 87 1017.7
20260901045038 74 192 0.0 0.0 0.00 0.00 0.00 86 1017.7
20260901044539 74 192 0.0 1.7 0.00 0.00 0.00 86 1017.7
20260901044103 74 192 0.9 1.7 0.00 0.00 0.00 87 1017.8
20260901043539 74 192 0.0 1.7 0.00 0.00 0.00 86 1017.8
20260901043037 74 192 0.0 1.7 0.00 0.00 0.00 86 1017.8
20260901042536 74 192 0.0 1.7 0.00 0.00 0.00 86 1017.7
20260901042034 74 192 0.0 1.7 0.00 0.00 0.00 86 1017.8
20260901041556 74 192 0.9 2.6 0.00 0.00 0.00 86 1017.9
20260901041034 74 192 1.7 2.6 0.00 0.00 0.00 86 1017.8
20260901040532 74 192 1.7 2.6 0.00 0.00 0.00 86 1018.0
20260901040050 74 192 0.9 2.6 0.00 0.00 0.00 85 1018.0
20260901035541 74 192 1.7 2.6 0.00 0.00 0.00 85 1018.0
20260901035039 74 192 0.9 2.6 0.00 0.00 0.00 85 1018.1
20260901034537 74 192 0.9 2.6 0.00 0.00 0.00 85 1018.1
20260901034036 75 192 1.7 2.6 0.00 0.00 0.00 85 1018.1
20260901033534 75 192 1.7 3.5 0.00 0.00 0.00 85 1018.0
20260901033033 75 192 1.7 3.5 0.00 0.00 0.00 85 1018.1
20260901032530 75 192 2.6 3.5 0.00 0.00 0.00 85 1018.1
20260901032049 75 192 1.7 3.5 0.00 0.00 0.00 84 1018.1
20260901031529 75 192 1.7 2.6 0.00 0.00 0.00 83 1018.1
20260901031028 75 192 0.9 3.5 0.00 0.00 0.00 83 1018.2
20260901030524 75 192 1.7 3.5 0.00 0.00 0.00 83 1018.3
20260901030044 75 192 1.7 2.6 0.00 0.00 0.00 82 1018.3
20260901025539 75 192 0.9 2.6 0.00 0.00 0.00 81 1018.4
20260901025038 75 192 0.9 1.7 0.00 0.00 0.00 81 1018.5
20260901024536 75 192 0.9 2.6 0.00 0.00 0.00 80 1018.5
20260901024101 75 192 0.9 2.6 0.00 0.00 0.00 80 1018.5
20260901023538 75 192 1.7 2.6 0.00 0.00 0.00 80 1018.6
20260901023036 75 192 0.0 0.0 0.00 0.00 0.00 80 1018.6
20260901022534 75 192 0.0 0.0 0.00 0.00 0.00 80 1018.7
20260901022033 75 192 0.0 0.0 0.00 0.00 0.00 79 1018.7
20260901021556 76 192 0.0 0.0 0.00 0.00 0.00 79 1018.7
20260901021033 76 192 0.0 0.0 0.00 0.00 0.00 79 1018.7
20260901020530 76 192 0.0 0.0 0.00 0.00 0.00 79 1018.7
20260901020030 76 192 0.0 0.0 0.00 0.00 0.00 79 1018.6
20260901015552 76 192 0.0 0.0 0.00 0.00 0.00 78 1018.6
20260901015055 76 192 0.0 1.7 0.00 0.00 0.00 78 1018.6
20260901014535 76 192 0.0 2.6 0.00 0.00 0.00 78 1018.6
20260901014035 76 192 0.9 3.5 0.00 0.00 0.00 77 1018.6
20260901013532 76 192 1.7 3.5 0.00 0.00 0.00 77 1018.4
20260901013031 76 192 0.0 0.9 0.00 0.00 0.00 78 1018.4
20260901012528 76 192 0.0 1.7 0.00 0.00 0.00 79 1018.3
20260901012027 76 192 0.9 2.6 0.00 0.00 0.00 78 1018.2
20260901011544 76 192 0.9 2.6 0.00 0.00 0.00 79 1018.1
20260901011044 76 192 1.7 2.6 0.00 0.00 0.00 79 1018.2
20260901010541 76 192 1.7 2.6 0.00 0.00 0.00 79 1018.1
20260901010041 76 192 0.0 0.0 0.00 0.00 0.00 78 1018.1
20260901005537 76 192 0.0 0.0 0.00 0.00 0.00 78 1018.0
20260901005036 76 192 0.0 0.0 0.00 0.00 0.00 79 1017.9
20260901004533 76 192 0.0 2.6 0.00 0.00 0.00 79 1018.0
20260901004032 76 192 0.9 3.5 0.00 0.00 0.00 78 1017.8
20260901003534 77 192 1.7 3.5 0.00 0.00 0.00 79 1017.6
20260901003030 77 192 0.9 3.5 0.00 0.00 0.00 80 1017.7
20260901002548 77 192 1.7 6.1 0.00 0.00 0.00 79 1017.6
20260901002026 77 192 1.7 6.1 0.00 0.00 0.00 80 1017.6
20260901001543 78 184 1.7 4.3 0.00 0.00 0.00 81 1017.7
20260901001043 78 166 3.5 5.2 0.00 0.00 0.00 81 1017.7
20260901000541 78 174 4.3 4.3 0.00 0.00 0.00 81 1017.7
20260901000037 79 190 1.7 4.3 0.00 0.00 0.00 81 1017.7
20260831235534 79 159 2.6 4.3 0.00 0.00 0.00 80 1017.6
20260831235033 79 139 0.0 2.6 0.00 0.00 0.00 80 1017.6
20260831234549 79 139 0.0 2.6 0.00 0.00 0.00 80 1017.6
20260831234027 79 139 0.9 3.5 0.00 0.00 0.00 80 1017.7
20260831233524 79 139 1.7 3.5 0.00 0.00 0.00 80 1017.6
20260831233042 79 139 1.7 4.3 0.00 0.00 0.00 80 1017.6
20260831232540 79 139 2.6 4.3 0.00 0.00 0.00 79 1017.7
20260831232039 80 148 3.5 6.1 0.00 0.00 0.00 79 1017.7